Regional Weather Roundup
Issued by NWS

Home | Current Version | Previous Version | Text Only | Print | Product List | Glossary On
Versions: 1 2 3 4 5 6 7 8 9 10 11 12 13 14 15 16 17 18 19 20 21 22 23 24 25 26 27 28 29 30 31 32 33 34 35 36 37 38 39 40 41 42 43 44 45 46 47 48 49 50
000
ASUS43 KLMK 042010
RWRKY
KENTUCKY REGIONAL WEATHER ROUNDUP
NATIONAL WEATHER SERVICE LOUISVILLE KY
400 PM EDT FRI SEP 04 2015

NOTE "FAIR" INDICATES FEW OR NO CLOUDS BELOW 12,000 FEET
WITH NO SIGNIFICANT WEATHER AND/OR OBSTRUCTIONS TO VISIBILITY.

KYZ001>023-026-027-061>063-070>075-042100-
WESTERN AND SOUTH CENTRAL KENTUCKY

CITY           SKY/WX    TMP DP  RH WIND       PRES   REMARKS
PADUCAH        MOSUNNY   93  65  39 CALM      30.00F HX  95
HENDERSON      PTSUNNY   91  66  43 NE6       29.99F HX  94
OWENSBORO      PTSUNNY   94  68  42 S9        30.01F HX  98
HOPKINSVILLE   MOSUNNY   93  65  40 NE2       30.00F HX  95
BOWLING GREEN  SUNNY     94  60  32 VRB7      30.01F HX  94
GLASGOW        SUNNY     93  59  31 NE3       30.02F HX  93
$$

KYZ024-025-028>034-038-045-046-053-042100-
NORTH CENTRAL KENTUCKY

CITY           SKY/WX    TMP DP  RH WIND       PRES   REMARKS
LOUISVILLE/SDF MOSUNNY   92  63  38 S5        30.00F HX  93
LOUISVILLE/LOU MOSUNNY   93  62  35 CALM      30.02F HX  93
FORT KNOX      PTSUNNY   91  66  43 VRB1      30.01F HX  94
$$

KYZ035>037-039>044-047>052-055>060-089>105-042100-
NORTHEAST KENTUCKY

CITY           SKY/WX    TMP DP  RH WIND       PRES   REMARKS
LEXINGTON      MOSUNNY   94  64  37 N7        30.04F HX  95
COVINGTON      MOSUNNY   91  66  43 SW6       30.02F HX  93
FRANKFORT      PTSUNNY   93  63  36 VRB5      30.02F HX  94
$$

KYZ054-064>069-076>088-106>120-042100-
SOUTHEAST KENTUCKY

CITY           SKY/WX    TMP DP  RH WIND       PRES   REMARKS
JACKSON        PTSUNNY   88  66  48 VRB3      30.07F HX  90
LONDON         MOSUNNY   91  60  35 CALM      30.05F HX  90
SOMERSET       MOSUNNY   86  63  45 N5        30.05F
MIDDLESBORO    MOSUNNY   89  64  42 NW7       30.05F HX  90
MONTICELLO     CLEAR     94  66  39 CALM      30.07F HX  97
$$




USA.gov is the U.S. government's official web portal to all federal, state and local government web resources and services.